<?xml version="1.0" encoding="UTF-8" standalone="no" ?>
<gpx xmlns="http://www.topografix.com/GPX/1/1" xmlns:xsi="http://www.w3.org/2001/XMLSchema-instance" xsi:schemaLocation="http://www.topografix.com/GPX/1/1 http://www.topografix.com/GPX/1/1/gpx.xsd" version="1.1" creator="VisuGPX - https://www.visugpx.com">
  <metadata>
    <name>Circuit VTT 56km</name>
  </metadata>
  <wpt lat="48.59436" lon="-3.14798">
    <ele>56.5</ele>
    <name><![CDATA[Ravitaillement]]></name>
    <desc><![CDATA[]]></desc>
  </wpt>
  <wpt lat="48.56171" lon="-3.08326">
    <ele>134.8</ele>
    <name><![CDATA[Ravitaillement]]></name>
    <desc><![CDATA[]]></desc>
  </wpt>
  <trk>
    <name><![CDATA[Rando St Agathon 2024 56 kms-14814272]]></name>
    <trkseg>
      <trkpt lat="48.5574" lon="-3.10457">
        <ele>120</ele>
        <time>2024-06-04T09:52:50Z</time>
      </trkpt>
      <trkpt lat="48.55761" lon="-3.10439">
        <ele>120</ele>
        <time>2024-06-04T09:52:56Z</time>
      </trkpt>
      <trkpt lat="48.55782" lon="-3.10439">
        <ele>119</ele>
        <time>2024-06-04T09:53:01Z</time>
      </trkpt>
      <trkpt lat="48.55814" lon="-3.10446">
        <ele>118</ele>
        <time>2024-06-04T09:53:08Z</time>
      </trkpt>
      <trkpt lat="48.55818" lon="-3.10369">
        <ele>119</ele>
        <time>2024-06-04T09:53:20Z</time>
      </trkpt>
      <trkpt lat="48.5584" lon="-3.1034">
        <ele>119</ele>
        <time>2024-06-04T09:53:27Z</time>
      </trkpt>
      <trkpt lat="48.5589" lon="-3.10334">
        <ele>118</ele>
        <time>2024-06-04T09:53:39Z</time>
      </trkpt>
      <trkpt lat="48.55916" lon="-3.10401">
        <ele>117</ele>
        <time>2024-06-04T09:53:51Z</time>
      </trkpt>
      <trkpt lat="48.55914" lon="-3.10465">
        <ele>115</ele>
        <time>2024-06-04T09:54:00Z</time>
      </trkpt>
      <trkpt lat="48.55941" lon="-3.1051">
        <ele>113</ele>
        <time>2024-06-04T09:54:10Z</time>
      </trkpt>
      <trkpt lat="48.55923" lon="-3.10572">
        <ele>114</ele>
        <time>2024-06-04T09:54:20Z</time>
      </trkpt>
      <trkpt lat="48.55951" lon="-3.10718">
        <ele>117</ele>
        <time>2024-06-04T09:54:44Z</time>
      </trkpt>
      <trkpt lat="48.55996" lon="-3.10794">
        <ele>118</ele>
        <time>2024-06-04T09:55:00Z</time>
      </trkpt>
      <trkpt lat="48.56053" lon="-3.11037">
        <ele>121</ele>
        <time>2024-06-04T09:55:39Z</time>
      </trkpt>
      <trkpt lat="48.56157" lon="-3.11059">
        <ele>121</ele>
        <time>2024-06-04T09:56:04Z</time>
      </trkpt>
      <trkpt lat="48.56194" lon="-3.10977">
        <ele>117</ele>
        <time>2024-06-04T09:56:19Z</time>
      </trkpt>
      <trkpt lat="48.56221" lon="-3.10948">
        <ele>113</ele>
        <time>2024-06-04T09:56:27Z</time>
      </trkpt>
      <trkpt lat="48.5633" lon="-3.11052">
        <ele>106</ele>
        <time>2024-06-04T09:56:57Z</time>
      </trkpt>
      <trkpt lat="48.56342" lon="-3.11049">
        <ele>105</ele>
        <time>2024-06-04T09:57:00Z</time>
      </trkpt>
      <trkpt lat="48.56349" lon="-3.11054">
        <ele>105</ele>
        <time>2024-06-04T09:57:02Z</time>
      </trkpt>
      <trkpt lat="48.56328" lon="-3.11061">
        <ele>106</ele>
        <time>2024-06-04T09:57:07Z</time>
      </trkpt>
      <trkpt lat="48.56332" lon="-3.1107">
        <ele>106</ele>
        <time>2024-06-04T09:57:08Z</time>
      </trkpt>
      <trkpt lat="48.56303" lon="-3.11143">
        <ele>110</ele>
        <time>2024-06-04T09:57:22Z</time>
      </trkpt>
      <trkpt lat="48.56297" lon="-3.11175">
        <ele>111</ele>
        <time>2024-06-04T09:57:27Z</time>
      </trkpt>
      <trkpt lat="48.56278" lon="-3.11181">
        <ele>114</ele>
        <time>2024-06-04T09:57:31Z</time>
      </trkpt>
      <trkpt lat="48.56268" lon="-3.1118">
        <ele>115</ele>
        <time>2024-06-04T09:57:34Z</time>
      </trkpt>
      <trkpt lat="48.56231" lon="-3.11206">
        <ele>118</ele>
        <time>2024-06-04T09:57:43Z</time>
      </trkpt>
      <trkpt lat="48.56221" lon="-3.1122">
        <ele>118</ele>
        <time>2024-06-04T09:57:46Z</time>
      </trkpt>
      <trkpt lat="48.5622" lon="-3.11261">
        <ele>118</ele>
        <time>2024-06-04T09:57:53Z</time>
      </trkpt>
      <trkpt lat="48.56224" lon="-3.11294">
        <ele>118</ele>
        <time>2024-06-04T09:57:58Z</time>
      </trkpt>
      <trkpt lat="48.56241" lon="-3.11314">
        <ele>117</ele>
        <time>2024-06-04T09:58:03Z</time>
      </trkpt>
      <trkpt lat="48.56261" lon="-3.11296">
        <ele>116</ele>
        <time>2024-06-04T09:58:08Z</time>
      </trkpt>
      <trkpt lat="48.56294" lon="-3.11287">
        <ele>113</ele>
        <time>2024-06-04T09:58:16Z</time>
      </trkpt>
      <trkpt lat="48.56302" lon="-3.1128">
        <ele>113</ele>
        <time>2024-06-04T09:58:18Z</time>
      </trkpt>
      <trkpt lat="48.5632" lon="-3.11277">
        <ele>111</ele>
        <time>2024-06-04T09:58:23Z</time>
      </trkpt>
      <trkpt lat="48.56356" lon="-3.11329">
        <ele>109</ele>
        <time>2024-06-04T09:58:34Z</time>
      </trkpt>
      <trkpt lat="48.56374" lon="-3.11347">
        <ele>109</ele>
        <time>2024-06-04T09:58:39Z</time>
      </trkpt>
      <trkpt lat="48.56379" lon="-3.11374">
        <ele>110</ele>
        <time>2024-06-04T09:58:44Z</time>
      </trkpt>
      <trkpt lat="48.56386" lon="-3.11379">
        <ele>110</ele>
        <time>2024-06-04T09:58:45Z</time>
      </trkpt>
      <trkpt lat="48.56401" lon="-3.11361">
        <ele>109</ele>
        <time>2024-06-04T09:58:50Z</time>
      </trkpt>
      <trkpt lat="48.56402" lon="-3.11377">
        <ele>109</ele>
        <time>2024-06-04T09:58:52Z</time>
      </trkpt>
      <trkpt lat="48.56371" lon="-3.11399">
        <ele>112</ele>
        <time>2024-06-04T09:59:00Z</time>
      </trkpt>
      <trkpt lat="48.56351" lon="-3.11423">
        <ele>115</ele>
        <time>2024-06-04T09:59:06Z</time>
      </trkpt>
      <trkpt lat="48.56337" lon="-3.11465">
        <ele>118</ele>
        <time>2024-06-04T09:59:14Z</time>
      </trkpt>
      <trkpt lat="48.56317" lon="-3.11504">
        <ele>119</ele>
        <time>2024-06-04T09:59:21Z</time>
      </trkpt>
      <trkpt lat="48.56305" lon="-3.11514">
        <ele>120</ele>
        <time>2024-06-04T09:59:24Z</time>
      </trkpt>
      <trkpt lat="48.56304" lon="-3.11527">
        <ele>119</ele>
        <time>2024-06-04T09:59:26Z</time>
      </trkpt>
      <trkpt lat="48.56324" lon="-3.11586">
        <ele>118</ele>
        <time>2024-06-04T09:59:37Z</time>
      </trkpt>
      <trkpt lat="48.56346" lon="-3.11619">
        <ele>118</ele>
        <time>2024-06-04T09:59:44Z</time>
      </trkpt>
      <trkpt lat="48.56359" lon="-3.116">
        <ele>117</ele>
        <time>2024-06-04T09:59:48Z</time>
      </trkpt>
      <trkpt lat="48.56387" lon="-3.11467">
        <ele>113</ele>
        <time>2024-06-04T10:00:10Z</time>
      </trkpt>
      <trkpt lat="48.56395" lon="-3.11455">
        <ele>112</ele>
        <time>2024-06-04T10:00:12Z</time>
      </trkpt>
      <trkpt lat="48.56408" lon="-3.11416">
        <ele>110</ele>
        <time>2024-06-04T10:00:19Z</time>
      </trkpt>
      <trkpt lat="48.56408" lon="-3.1139">
        <ele>109</ele>
        <time>2024-06-04T10:00:23Z</time>
      </trkpt>
      <trkpt lat="48.56413" lon="-3.11364">
        <ele>108</ele>
        <time>2024-06-04T10:00:27Z</time>
      </trkpt>
      <trkpt lat="48.56414" lon="-3.11329">
        <ele>107</ele>
        <time>2024-06-04T10:00:33Z</time>
      </trkpt>
      <trkpt lat="48.56408" lon="-3.1131">
        <ele>107</ele>
        <time>2024-06-04T10:00:36Z</time>
      </trkpt>
      <trkpt lat="48.5638" lon="-3.11282">
        <ele>108</ele>
        <time>2024-06-04T10:00:44Z</time>
      </trkpt>
      <trkpt lat="48.56375" lon="-3.11265">
        <ele>108</ele>
        <time>2024-06-04T10:00:47Z</time>
      </trkpt>
      <trkpt lat="48.56376" lon="-3.1122">
        <ele>107</ele>
        <time>2024-06-04T10:00:54Z</time>
      </trkpt>
      <trkpt lat="48.56387" lon="-3.11189">
        <ele>105</ele>
        <time>2024-06-04T10:00:59Z</time>
      </trkpt>
      <trkpt lat="48.564" lon="-3.11176">
        <ele>105</ele>
        <time>2024-06-04T10:01:03Z</time>
      </trkpt>
      <trkpt lat="48.56405" lon="-3.11165">
        <ele>104</ele>
        <time>2024-06-04T10:01:05Z</time>
      </trkpt>
      <trkpt lat="48.56433" lon="-3.1116">
        <ele>103</ele>
        <time>2024-06-04T10:01:11Z</time>
      </trkpt>
      <trkpt lat="48.56449" lon="-3.11151">
        <ele>102</ele>
        <time>2024-06-04T10:01:15Z</time>
      </trkpt>
      <trkpt lat="48.56451" lon="-3.11137">
        <ele>102</ele>
        <time>2024-06-04T10:01:18Z</time>
      </trkpt>
      <trkpt lat="48.56447" lon="-3.11118">
        <ele>102</ele>
        <time>2024-06-04T10:01:21Z</time>
      </trkpt>
      <trkpt lat="48.56447" lon="-3.11095">
        <ele>102</ele>
        <time>2024-06-04T10:01:24Z</time>
      </trkpt>
      <trkpt lat="48.5645" lon="-3.11023">
        <ele>102</ele>
        <time>2024-06-04T10:01:35Z</time>
      </trkpt>
      <trkpt lat="48.56452" lon="-3.11004">
        <ele>102</ele>
        <time>2024-06-04T10:01:38Z</time>
      </trkpt>
      <trkpt lat="48.56461" lon="-3.11">
        <ele>102</ele>
        <time>2024-06-04T10:01:40Z</time>
      </trkpt>
      <trkpt lat="48.5645" lon="-3.10951">
        <ele>103</ele>
        <time>2024-06-04T10:01:48Z</time>
      </trkpt>
      <trkpt lat="48.56415" lon="-3.10911">
        <ele>104</ele>
        <time>2024-06-04T10:01:59Z</time>
      </trkpt>
      <trkpt lat="48.56388" lon="-3.1089">
        <ele>104</ele>
        <time>2024-06-04T10:02:06Z</time>
      </trkpt>
      <trkpt lat="48.56356" lon="-3.1084">
        <ele>103</ele>
        <time>2024-06-04T10:02:17Z</time>
      </trkpt>
      <trkpt lat="48.56292" lon="-3.10839">
        <ele>106</ele>
        <time>2024-06-04T10:02:32Z</time>
      </trkpt>
      <trkpt lat="48.56198" lon="-3.10722">
        <ele>108</ele>
        <time>2024-06-04T10:03:00Z</time>
      </trkpt>
      <trkpt lat="48.56196" lon="-3.10689">
        <ele>108</ele>
        <time>2024-06-04T10:03:05Z</time>
      </trkpt>
      <trkpt lat="48.56207" lon="-3.10701">
        <ele>108</ele>
        <time>2024-06-04T10:03:08Z</time>
      </trkpt>
      <trkpt lat="48.56233" lon="-3.1071">
        <ele>108</ele>
        <time>2024-06-04T10:03:14Z</time>
      </trkpt>
      <trkpt lat="48.56256" lon="-3.10725">
        <ele>107</ele>
        <time>2024-06-04T10:03:20Z</time>
      </trkpt>
      <trkpt lat="48.56267" lon="-3.10746">
        <ele>106</ele>
        <time>2024-06-04T10:03:24Z</time>
      </trkpt>
      <trkpt lat="48.56293" lon="-3.1078">
        <ele>106</ele>
        <time>2024-06-04T10:03:33Z</time>
      </trkpt>
      <trkpt lat="48.56306" lon="-3.10791">
        <ele>105</ele>
        <time>2024-06-04T10:03:36Z</time>
      </trkpt>
      <trkpt lat="48.56309" lon="-3.10815">
        <ele>105</ele>
        <time>2024-06-04T10:03:40Z</time>
      </trkpt>
      <trkpt lat="48.56315" lon="-3.10832">
        <ele>104</ele>
        <time>2024-06-04T10:03:43Z</time>
      </trkpt>
      <trkpt lat="48.5634" lon="-3.10832">
        <ele>103</ele>
        <time>2024-06-04T10:03:49Z</time>
      </trkpt>
      <trkpt lat="48.5636" lon="-3.10796">
        <ele>106</ele>
        <time>2024-06-04T10:03:56Z</time>
      </trkpt>
      <trkpt lat="48.56364" lon="-3.1078">
        <ele>107</ele>
        <time>2024-06-04T10:03:58Z</time>
      </trkpt>
      <trkpt lat="48.56374" lon="-3.10773">
        <ele>108</ele>
        <time>2024-06-04T10:04:01Z</time>
      </trkpt>
      <trkpt lat="48.56375" lon="-3.10763">
        <ele>109</ele>
        <time>2024-06-04T10:04:03Z</time>
      </trkpt>
      <trkpt lat="48.56384" lon="-3.10771">
        <ele>109</ele>
        <time>2024-06-04T10:04:05Z</time>
      </trkpt>
      <trkpt lat="48.56391" lon="-3.1074">
        <ele>112</ele>
        <time>2024-06-04T10:04:10Z</time>
      </trkpt>
      <trkpt lat="48.56442" lon="-3.10667">
        <ele>123</ele>
        <time>2024-06-04T10:04:27Z</time>
      </trkpt>
      <trkpt lat="48.56402" lon="-3.10689">
        <ele>119</ele>
        <time>2024-06-04T10:04:36Z</time>
      </trkpt>
      <trkpt lat="48.56374" lon="-3.10698">
        <ele>116</ele>
        <time>2024-06-04T10:04:43Z</time>
      </trkpt>
      <trkpt lat="48.56344" lon="-3.10681">
        <ele>117</ele>
        <time>2024-06-04T10:04:51Z</time>
      </trkpt>
      <trkpt lat="48.5638" lon="-3.1064">
        <ele>122</ele>
        <time>2024-06-04T10:05:01Z</time>
      </trkpt>
      <trkpt lat="48.56379" lon="-3.10594">
        <ele>123</ele>
        <time>2024-06-04T10:05:08Z</time>
      </trkpt>
      <trkpt lat="48.56346" lon="-3.10581">
        <ele>122</ele>
        <time>2024-06-04T10:05:16Z</time>
      </trkpt>
      <trkpt lat="48.56282" lon="-3.10607">
        <ele>116</ele>
        <time>2024-06-04T10:05:32Z</time>
      </trkpt>
      <trkpt lat="48.56247" lon="-3.10604">
        <ele>114</ele>
        <time>2024-06-04T10:05:40Z</time>
      </trkpt>
      <trkpt lat="48.56248" lon="-3.10554">
        <ele>115</ele>
        <time>2024-06-04T10:05:48Z</time>
      </trkpt>
      <trkpt lat="48.56231" lon="-3.10547">
        <ele>114</ele>
        <time>2024-06-04T10:05:52Z</time>
      </trkpt>
      <trkpt lat="48.56208" lon="-3.10529">
        <ele>113</ele>
        <time>2024-06-04T10:05:58Z</time>
      </trkpt>
      <trkpt lat="48.56195" lon="-3.10455">
        <ele>112</ele>
        <time>2024-06-04T10:06:10Z</time>
      </trkpt>
      <trkpt lat="48.5618" lon="-3.10405">
        <ele>110</ele>
        <time>2024-06-04T10:06:18Z</time>
      </trkpt>
      <trkpt lat="48.56157" lon="-3.10393">
        <ele>108</ele>
        <time>2024-06-04T10:06:24Z</time>
      </trkpt>
      <trkpt lat="48.56146" lon="-3.10341">
        <ele>108</ele>
        <time>2024-06-04T10:06:32Z</time>
      </trkpt>
      <trkpt lat="48.56061" lon="-3.10217">
        <ele>111</ele>
        <time>2024-06-04T10:07:00Z</time>
      </trkpt>
      <trkpt lat="48.56011" lon="-3.101">
        <ele>111</ele>
        <time>2024-06-04T10:07:21Z</time>
      </trkpt>
      <trkpt lat="48.56006" lon="-3.09934">
        <ele>112</ele>
        <time>2024-06-04T10:07:47Z</time>
      </trkpt>
      <trkpt lat="48.5598" lon="-3.09887">
        <ele>110</ele>
        <time>2024-06-04T10:07:57Z</time>
      </trkpt>
      <trkpt lat="48.55935" lon="-3.09824">
        <ele>110</ele>
        <time>2024-06-04T10:08:11Z</time>
      </trkpt>
      <trkpt lat="48.5602" lon="-3.09632">
        <ele>113</ele>
        <time>2024-06-04T10:08:47Z</time>
      </trkpt>
      <trkpt lat="48.56098" lon="-3.09633">
        <ele>115</ele>
        <time>2024-06-04T10:09:05Z</time>
      </trkpt>
      <trkpt lat="48.56281" lon="-3.09793">
        <ele>123</ele>
        <time>2024-06-04T10:09:54Z</time>
      </trkpt>
      <trkpt lat="48.56329" lon="-3.09815">
        <ele>123</ele>
        <time>2024-06-04T10:10:06Z</time>
      </trkpt>
      <trkpt lat="48.56359" lon="-3.0981">
        <ele>124</ele>
        <time>2024-06-04T10:10:13Z</time>
      </trkpt>
      <trkpt lat="48.56368" lon="-3.09828">
        <ele>125</ele>
        <time>2024-06-04T10:10:16Z</time>
      </trkpt>
      <trkpt lat="48.56302" lon="-3.0999">
        <ele>125</ele>
        <time>2024-06-04T10:10:46Z</time>
      </trkpt>
      <trkpt lat="48.5628" lon="-3.10106">
        <ele>127</ele>
        <time>2024-06-04T10:11:04Z</time>
      </trkpt>
      <trkpt lat="48.5633" lon="-3.10164">
        <ele>132</ele>
        <time>2024-06-04T10:11:19Z</time>
      </trkpt>
      <trkpt lat="48.56405" lon="-3.10183">
        <ele>132</ele>
        <time>2024-06-04T10:11:37Z</time>
      </trkpt>
      <trkpt lat="48.56453" lon="-3.10247">
        <ele>129</ele>
        <time>2024-06-04T10:11:52Z</time>
      </trkpt>
      <trkpt lat="48.56432" lon="-3.10371">
        <ele>124</ele>
        <time>2024-06-04T10:12:12Z</time>
      </trkpt>
      <trkpt lat="48.56502" lon="-3.10436">
        <ele>120</ele>
        <time>2024-06-04T10:12:31Z</time>
      </trkpt>
      <trkpt lat="48.5658" lon="-3.1047">
        <ele>121</ele>
        <time>2024-06-04T10:12:50Z</time>
      </trkpt>
      <trkpt lat="48.56676" lon="-3.10506">
        <ele>122</ele>
        <time>2024-06-04T10:13:13Z</time>
      </trkpt>
      <trkpt lat="48.56662" lon="-3.10568">
        <ele>121</ele>
        <time>2024-06-04T10:13:23Z</time>
      </trkpt>
      <trkpt lat="48.56672" lon="-3.10594">
        <ele>120</ele>
        <time>2024-06-04T10:13:28Z</time>
      </trkpt>
      <trkpt lat="48.56667" lon="-3.10664">
        <ele>121</ele>
        <time>2024-06-04T10:13:39Z</time>
      </trkpt>
      <trkpt lat="48.5665" lon="-3.10744">
        <ele>118</ele>
        <time>2024-06-04T10:13:52Z</time>
      </trkpt>
      <trkpt lat="48.5662" lon="-3.10804">
        <ele>114</ele>
        <time>2024-06-04T10:14:03Z</time>
      </trkpt>
      <trkpt lat="48.56611" lon="-3.10846">
        <ele>112</ele>
        <time>2024-06-04T10:14:10Z</time>
      </trkpt>
      <trkpt lat="48.56765" lon="-3.10914">
        <ele>119</ele>
        <time>2024-06-04T10:14:47Z</time>
      </trkpt>
      <trkpt lat="48.56807" lon="-3.10917">
        <ele>120</ele>
        <time>2024-06-04T10:14:57Z</time>
      </trkpt>
      <trkpt lat="48.56896" lon="-3.10965">
        <ele>120</ele>
        <time>2024-06-04T10:15:19Z</time>
      </trkpt>
      <trkpt lat="48.57059" lon="-3.11025">
        <ele>115</ele>
        <time>2024-06-04T10:15:58Z</time>
      </trkpt>
      <trkpt lat="48.57153" lon="-3.11081">
        <ele>113</ele>
        <time>2024-06-04T10:16:22Z</time>
      </trkpt>
      <trkpt lat="48.57135" lon="-3.11126">
        <ele>114</ele>
        <time>2024-06-04T10:16:30Z</time>
      </trkpt>
      <trkpt lat="48.57102" lon="-3.11164">
        <ele>113</ele>
        <time>2024-06-04T10:16:40Z</time>
      </trkpt>
      <trkpt lat="48.5707" lon="-3.11292">
        <ele>110</ele>
        <time>2024-06-04T10:17:01Z</time>
      </trkpt>
      <trkpt lat="48.5709" lon="-3.11412">
        <ele>108</ele>
        <time>2024-06-04T10:17:20Z</time>
      </trkpt>
      <trkpt lat="48.57142" lon="-3.11512">
        <ele>105</ele>
        <time>2024-06-04T10:17:40Z</time>
      </trkpt>
      <trkpt lat="48.5719" lon="-3.11567">
        <ele>104</ele>
        <time>2024-06-04T10:17:54Z</time>
      </trkpt>
      <trkpt lat="48.57212" lon="-3.1157">
        <ele>105</ele>
        <time>2024-06-04T10:17:59Z</time>
      </trkpt>
      <trkpt lat="48.57233" lon="-3.11606">
        <ele>105</ele>
        <time>2024-06-04T10:18:06Z</time>
      </trkpt>
      <trkpt lat="48.57213" lon="-3.11643">
        <ele>105</ele>
        <time>2024-06-04T10:18:14Z</time>
      </trkpt>
      <trkpt lat="48.57219" lon="-3.11683">
        <ele>106</ele>
        <time>2024-06-04T10:18:20Z</time>
      </trkpt>
      <trkpt lat="48.57241" lon="-3.11722">
        <ele>105</ele>
        <time>2024-06-04T10:18:28Z</time>
      </trkpt>
      <trkpt lat="48.57274" lon="-3.11766">
        <ele>103</ele>
        <time>2024-06-04T10:18:38Z</time>
      </trkpt>
      <trkpt lat="48.57288" lon="-3.11743">
        <ele>103</ele>
        <time>2024-06-04T10:18:43Z</time>
      </trkpt>
      <trkpt lat="48.57272" lon="-3.11705">
        <ele>104</ele>
        <time>2024-06-04T10:18:50Z</time>
      </trkpt>
      <trkpt lat="48.57258" lon="-3.11651">
        <ele>105</ele>
        <time>2024-06-04T10:18:59Z</time>
      </trkpt>
      <trkpt lat="48.57273" lon="-3.11616">
        <ele>106</ele>
        <time>2024-06-04T10:19:06Z</time>
      </trkpt>
      <trkpt lat="48.57294" lon="-3.11651">
        <ele>107</ele>
        <time>2024-06-04T10:19:13Z</time>
      </trkpt>
      <trkpt lat="48.57319" lon="-3.11717">
        <ele>105</ele>
        <time>2024-06-04T10:19:25Z</time>
      </trkpt>
      <trkpt lat="48.57344" lon="-3.11766">
        <ele>103</ele>
        <time>2024-06-04T10:19:34Z</time>
      </trkpt>
      <trkpt lat="48.5732" lon="-3.11801">
        <ele>100</ele>
        <time>2024-06-04T10:19:42Z</time>
      </trkpt>
      <trkpt lat="48.57274" lon="-3.11829">
        <ele>103</ele>
        <time>2024-06-04T10:19:54Z</time>
      </trkpt>
      <trkpt lat="48.57234" lon="-3.11788">
        <ele>106</ele>
        <time>2024-06-04T10:20:05Z</time>
      </trkpt>
      <trkpt lat="48.57187" lon="-3.11719">
        <ele>108</ele>
        <time>2024-06-04T10:20:20Z</time>
      </trkpt>
      <trkpt lat="48.57158" lon="-3.11671">
        <ele>107</ele>
        <time>2024-06-04T10:20:30Z</time>
      </trkpt>
      <trkpt lat="48.57166" lon="-3.1175">
        <ele>111</ele>
        <time>2024-06-04T10:20:43Z</time>
      </trkpt>
      <trkpt lat="48.57153" lon="-3.11851">
        <ele>111</ele>
        <time>2024-06-04T10:20:58Z</time>
      </trkpt>
      <trkpt lat="48.57042" lon="-3.12164">
        <ele>121</ele>
        <time>2024-06-04T10:21:53Z</time>
      </trkpt>
      <trkpt lat="48.57051" lon="-3.1232">
        <ele>124</ele>
        <time>2024-06-04T10:22:18Z</time>
      </trkpt>
      <trkpt lat="48.5708" lon="-3.1244">
        <ele>125</ele>
        <time>2024-06-04T10:22:37Z</time>
      </trkpt>
      <trkpt lat="48.57169" lon="-3.1205">
        <ele>114</ele>
        <time>2024-06-04T10:23:41Z</time>
      </trkpt>
      <trkpt lat="48.57228" lon="-3.11895">
        <ele>109</ele>
        <time>2024-06-04T10:24:09Z</time>
      </trkpt>
      <trkpt lat="48.57255" lon="-3.11918">
        <ele>108</ele>
        <time>2024-06-04T10:24:16Z</time>
      </trkpt>
      <trkpt lat="48.57358" lon="-3.12103">
        <ele>104</ele>
        <time>2024-06-04T10:24:53Z</time>
      </trkpt>
      <trkpt lat="48.57403" lon="-3.12213">
        <ele>100</ele>
        <time>2024-06-04T10:25:13Z</time>
      </trkpt>
      <trkpt lat="48.57373" lon="-3.12278">
        <ele>105</ele>
        <time>2024-06-04T10:25:25Z</time>
      </trkpt>
      <trkpt lat="48.57396" lon="-3.12349">
        <ele>106</ele>
        <time>2024-06-04T10:25:38Z</time>
      </trkpt>
      <trkpt lat="48.57359" lon="-3.12425">
        <ele>109</ele>
        <time>2024-06-04T10:25:52Z</time>
      </trkpt>
      <trkpt lat="48.57339" lon="-3.12584">
        <ele>119</ele>
        <time>2024-06-04T10:26:17Z</time>
      </trkpt>
      <trkpt lat="48.57483" lon="-3.12472">
        <ele>106</ele>
        <time>2024-06-04T10:26:55Z</time>
      </trkpt>
      <trkpt lat="48.57513" lon="-3.12457">
        <ele>104</ele>
        <time>2024-06-04T10:27:02Z</time>
      </trkpt>
      <trkpt lat="48.57555" lon="-3.12292">
        <ele>97</ele>
        <time>2024-06-04T10:27:30Z</time>
      </trkpt>
      <trkpt lat="48.57581" lon="-3.12278">
        <ele>96</ele>
        <time>2024-06-04T10:27:36Z</time>
      </trkpt>
      <trkpt lat="48.57669" lon="-3.12291">
        <ele>91</ele>
        <time>2024-06-04T10:27:57Z</time>
      </trkpt>
      <trkpt lat="48.57742" lon="-3.12299">
        <ele>90</ele>
        <time>2024-06-04T10:28:14Z</time>
      </trkpt>
      <trkpt lat="48.57773" lon="-3.12266">
        <ele>94</ele>
        <time>2024-06-04T10:28:23Z</time>
      </trkpt>
      <trkpt lat="48.57687" lon="-3.12176">
        <ele>99</ele>
        <time>2024-06-04T10:28:47Z</time>
      </trkpt>
      <trkpt lat="48.57753" lon="-3.1199">
        <ele>106</ele>
        <time>2024-06-04T10:29:20Z</time>
      </trkpt>
      <trkpt lat="48.57856" lon="-3.11873">
        <ele>106</ele>
        <time>2024-06-04T10:29:50Z</time>
      </trkpt>
      <trkpt lat="48.57899" lon="-3.1188">
        <ele>105</ele>
        <time>2024-06-04T10:30:00Z</time>
      </trkpt>
      <trkpt lat="48.57934" lon="-3.11945">
        <ele>101</ele>
        <time>2024-06-04T10:30:13Z</time>
      </trkpt>
      <trkpt lat="48.58067" lon="-3.12012">
        <ele>100</ele>
        <time>2024-06-04T10:30:46Z</time>
      </trkpt>
      <trkpt lat="48.58111" lon="-3.11988">
        <ele>100</ele>
        <time>2024-06-04T10:30:57Z</time>
      </trkpt>
      <trkpt lat="48.58211" lon="-3.12012">
        <ele>99</ele>
        <time>2024-06-04T10:31:20Z</time>
      </trkpt>
      <trkpt lat="48.58125" lon="-3.12227">
        <ele>99</ele>
        <time>2024-06-04T10:31:59Z</time>
      </trkpt>
      <trkpt lat="48.58102" lon="-3.12227">
        <ele>99</ele>
        <time>2024-06-04T10:32:04Z</time>
      </trkpt>
      <trkpt lat="48.5801" lon="-3.12425">
        <ele>88</ele>
        <time>2024-06-04T10:32:42Z</time>
      </trkpt>
      <trkpt lat="48.57964" lon="-3.12461">
        <ele>87</ele>
        <time>2024-06-04T10:32:54Z</time>
      </trkpt>
      <trkpt lat="48.57914" lon="-3.12452">
        <ele>89</ele>
        <time>2024-06-04T10:33:06Z</time>
      </trkpt>
      <trkpt lat="48.57883" lon="-3.12546">
        <ele>94</ele>
        <time>2024-06-04T10:33:22Z</time>
      </trkpt>
      <trkpt lat="48.58163" lon="-3.12685">
        <ele>106</ele>
        <time>2024-06-04T10:34:31Z</time>
      </trkpt>
      <trkpt lat="48.5825" lon="-3.12949">
        <ele>114</ele>
        <time>2024-06-04T10:35:16Z</time>
      </trkpt>
      <trkpt lat="48.5833" lon="-3.13334">
        <ele>118</ele>
        <time>2024-06-04T10:36:19Z</time>
      </trkpt>
      <trkpt lat="48.58348" lon="-3.13408">
        <ele>117</ele>
        <time>2024-06-04T10:36:31Z</time>
      </trkpt>
      <trkpt lat="48.58149" lon="-3.13627">
        <ele>126</ele>
        <time>2024-06-04T10:37:28Z</time>
      </trkpt>
      <trkpt lat="48.58081" lon="-3.13759">
        <ele>129</ele>
        <time>2024-06-04T10:37:54Z</time>
      </trkpt>
      <trkpt lat="48.58076" lon="-3.13901">
        <ele>131</ele>
        <time>2024-06-04T10:38:16Z</time>
      </trkpt>
      <trkpt lat="48.58027" lon="-3.13982">
        <ele>130</ele>
        <time>2024-06-04T10:38:33Z</time>
      </trkpt>
      <trkpt lat="48.57873" lon="-3.141">
        <ele>133</ele>
        <time>2024-06-04T10:39:13Z</time>
      </trkpt>
      <trkpt lat="48.57892" lon="-3.14226">
        <ele>131</ele>
        <time>2024-06-04T10:39:33Z</time>
      </trkpt>
      <trkpt lat="48.57819" lon="-3.14244">
        <ele>130</ele>
        <time>2024-06-04T10:39:51Z</time>
      </trkpt>
      <trkpt lat="48.57825" lon="-3.14569">
        <ele>130</ele>
        <time>2024-06-04T10:40:41Z</time>
      </trkpt>
      <trkpt lat="48.578" lon="-3.14561">
        <ele>129</ele>
        <time>2024-06-04T10:40:47Z</time>
      </trkpt>
      <trkpt lat="48.57794" lon="-3.1465">
        <ele>126</ele>
        <time>2024-06-04T10:41:01Z</time>
      </trkpt>
      <trkpt lat="48.57798" lon="-3.14693">
        <ele>125</ele>
        <time>2024-06-04T10:41:07Z</time>
      </trkpt>
      <trkpt lat="48.57827" lon="-3.14722">
        <ele>124</ele>
        <time>2024-06-04T10:41:16Z</time>
      </trkpt>
      <trkpt lat="48.57788" lon="-3.14884">
        <ele>125</ele>
        <time>2024-06-04T10:41:42Z</time>
      </trkpt>
      <trkpt lat="48.57861" lon="-3.15009">
        <ele>121</ele>
        <time>2024-06-04T10:42:08Z</time>
      </trkpt>
      <trkpt lat="48.57902" lon="-3.14996">
        <ele>120</ele>
        <time>2024-06-04T10:42:18Z</time>
      </trkpt>
      <trkpt lat="48.57941" lon="-3.15197">
        <ele>118</ele>
        <time>2024-06-04T10:42:50Z</time>
      </trkpt>
      <trkpt lat="48.57998" lon="-3.15294">
        <ele>116</ele>
        <time>2024-06-04T10:43:10Z</time>
      </trkpt>
      <trkpt lat="48.58046" lon="-3.15314">
        <ele>115</ele>
        <time>2024-06-04T10:43:22Z</time>
      </trkpt>
      <trkpt lat="48.58021" lon="-3.15382">
        <ele>115</ele>
        <time>2024-06-04T10:43:34Z</time>
      </trkpt>
      <trkpt lat="48.5802" lon="-3.15422">
        <ele>115</ele>
        <time>2024-06-04T10:43:40Z</time>
      </trkpt>
      <trkpt lat="48.57932" lon="-3.15455">
        <ele>115</ele>
        <time>2024-06-04T10:44:01Z</time>
      </trkpt>
      <trkpt lat="48.57767" lon="-3.15451">
        <ele>119</ele>
        <time>2024-06-04T10:44:40Z</time>
      </trkpt>
      <trkpt lat="48.57587" lon="-3.15355">
        <ele>121</ele>
        <time>2024-06-04T10:45:24Z</time>
      </trkpt>
      <trkpt lat="48.5759" lon="-3.15619">
        <ele>118</ele>
        <time>2024-06-04T10:46:05Z</time>
      </trkpt>
      <trkpt lat="48.57624" lon="-3.15651">
        <ele>117</ele>
        <time>2024-06-04T10:46:14Z</time>
      </trkpt>
      <trkpt lat="48.57626" lon="-3.15843">
        <ele>110</ele>
        <time>2024-06-04T10:46:44Z</time>
      </trkpt>
      <trkpt lat="48.57691" lon="-3.15862">
        <ele>109</ele>
        <time>2024-06-04T10:47:00Z</time>
      </trkpt>
      <trkpt lat="48.57825" lon="-3.15942">
        <ele>110</ele>
        <time>2024-06-04T10:47:33Z</time>
      </trkpt>
      <trkpt lat="48.57866" lon="-3.15889">
        <ele>113</ele>
        <time>2024-06-04T10:47:46Z</time>
      </trkpt>
      <trkpt lat="48.58059" lon="-3.15918">
        <ele>110</ele>
        <time>2024-06-04T10:48:31Z</time>
      </trkpt>
      <trkpt lat="48.58098" lon="-3.16034">
        <ele>110</ele>
        <time>2024-06-04T10:48:51Z</time>
      </trkpt>
      <trkpt lat="48.58435" lon="-3.15844">
        <ele>102</ele>
        <time>2024-06-04T10:50:15Z</time>
      </trkpt>
      <trkpt lat="48.58439" lon="-3.15788">
        <ele>100</ele>
        <time>2024-06-04T10:50:24Z</time>
      </trkpt>
      <trkpt lat="48.58391" lon="-3.15579">
        <ele>104</ele>
        <time>2024-06-04T10:50:58Z</time>
      </trkpt>
      <trkpt lat="48.58406" lon="-3.15554">
        <ele>102</ele>
        <time>2024-06-04T10:51:03Z</time>
      </trkpt>
      <trkpt lat="48.58488" lon="-3.15604">
        <ele>94</ele>
        <time>2024-06-04T10:51:24Z</time>
      </trkpt>
      <trkpt lat="48.58544" lon="-3.1553">
        <ele>82</ele>
        <time>2024-06-04T10:51:41Z</time>
      </trkpt>
      <trkpt lat="48.58569" lon="-3.15386">
        <ele>78</ele>
        <time>2024-06-04T10:52:04Z</time>
      </trkpt>
      <trkpt lat="48.58595" lon="-3.15336">
        <ele>74</ele>
        <time>2024-06-04T10:52:14Z</time>
      </trkpt>
      <trkpt lat="48.58644" lon="-3.15083">
        <ele>71</ele>
        <time>2024-06-04T10:52:55Z</time>
      </trkpt>
      <trkpt lat="48.58723" lon="-3.14955">
        <ele>76</ele>
        <time>2024-06-04T10:53:22Z</time>
      </trkpt>
      <trkpt lat="48.58777" lon="-3.14913">
        <ele>74</ele>
        <time>2024-06-04T10:53:36Z</time>
      </trkpt>
      <trkpt lat="48.58811" lon="-3.14863">
        <ele>79</ele>
        <time>2024-06-04T10:53:47Z</time>
      </trkpt>
      <trkpt lat="48.59142" lon="-3.14742">
        <ele>66</ele>
        <time>2024-06-04T10:55:07Z</time>
      </trkpt>
      <trkpt lat="48.59257" lon="-3.14738">
        <ele>62</ele>
        <time>2024-06-04T10:55:34Z</time>
      </trkpt>
      <trkpt lat="48.59375" lon="-3.14773">
        <ele>63</ele>
        <time>2024-06-04T10:56:02Z</time>
      </trkpt>
      <trkpt lat="48.5941" lon="-3.14742">
        <ele>65</ele>
        <time>2024-06-04T10:56:11Z</time>
      </trkpt>
      <trkpt lat="48.59469" lon="-3.14799">
        <ele>65</ele>
        <time>2024-06-04T10:56:27Z</time>
      </trkpt>
      <trkpt lat="48.59465" lon="-3.14847">
        <ele>67</ele>
        <time>2024-06-04T10:56:35Z</time>
      </trkpt>
      <trkpt lat="48.59387" lon="-3.14893">
        <ele>66</ele>
        <time>2024-06-04T10:56:54Z</time>
      </trkpt>
      <trkpt lat="48.59232" lon="-3.14809">
        <ele>59</ele>
        <time>2024-06-04T10:57:33Z</time>
      </trkpt>
      <trkpt lat="48.59073" lon="-3.14823">
        <ele>64</ele>
        <time>2024-06-04T10:58:10Z</time>
      </trkpt>
      <trkpt lat="48.58988" lon="-3.14875">
        <ele>61</ele>
        <time>2024-06-04T10:58:32Z</time>
      </trkpt>
      <trkpt lat="48.58979" lon="-3.15067">
        <ele>68</ele>
        <time>2024-06-04T10:59:01Z</time>
      </trkpt>
      <trkpt lat="48.59155" lon="-3.15091">
        <ele>79</ele>
        <time>2024-06-04T10:59:43Z</time>
      </trkpt>
      <trkpt lat="48.59203" lon="-3.15181">
        <ele>86</ele>
        <time>2024-06-04T11:00:00Z</time>
      </trkpt>
      <trkpt lat="48.59104" lon="-3.15619">
        <ele>103</ele>
        <time>2024-06-04T11:01:12Z</time>
      </trkpt>
      <trkpt lat="48.58969" lon="-3.15553">
        <ele>101</ele>
        <time>2024-06-04T11:01:45Z</time>
      </trkpt>
      <trkpt lat="48.58921" lon="-3.1557">
        <ele>99</ele>
        <time>2024-06-04T11:01:57Z</time>
      </trkpt>
      <trkpt lat="48.589" lon="-3.15552">
        <ele>99</ele>
        <time>2024-06-04T11:02:02Z</time>
      </trkpt>
      <trkpt lat="48.58804" lon="-3.15864">
        <ele>111</ele>
        <time>2024-06-04T11:02:55Z</time>
      </trkpt>
      <trkpt lat="48.58819" lon="-3.15998">
        <ele>119</ele>
        <time>2024-06-04T11:03:16Z</time>
      </trkpt>
      <trkpt lat="48.58809" lon="-3.16045">
        <ele>118</ele>
        <time>2024-06-04T11:03:24Z</time>
      </trkpt>
      <trkpt lat="48.58732" lon="-3.16107">
        <ele>114</ele>
        <time>2024-06-04T11:03:44Z</time>
      </trkpt>
      <trkpt lat="48.58641" lon="-3.16223">
        <ele>109</ele>
        <time>2024-06-04T11:04:12Z</time>
      </trkpt>
      <trkpt lat="48.58589" lon="-3.16392">
        <ele>104</ele>
        <time>2024-06-04T11:04:41Z</time>
      </trkpt>
      <trkpt lat="48.5875" lon="-3.16705">
        <ele>119</ele>
        <time>2024-06-04T11:05:42Z</time>
      </trkpt>
      <trkpt lat="48.58793" lon="-3.16758">
        <ele>120</ele>
        <time>2024-06-04T11:05:55Z</time>
      </trkpt>
      <trkpt lat="48.58849" lon="-3.16776">
        <ele>123</ele>
        <time>2024-06-04T11:06:08Z</time>
      </trkpt>
      <trkpt lat="48.58926" lon="-3.16757">
        <ele>128</ele>
        <time>2024-06-04T11:06:27Z</time>
      </trkpt>
      <trkpt lat="48.58912" lon="-3.17034">
        <ele>128</ele>
        <time>2024-06-04T11:07:10Z</time>
      </trkpt>
      <trkpt lat="48.59066" lon="-3.17172">
        <ele>132</ele>
        <time>2024-06-04T11:07:51Z</time>
      </trkpt>
      <trkpt lat="48.5943" lon="-3.17356">
        <ele>120</ele>
        <time>2024-06-04T11:09:21Z</time>
      </trkpt>
      <trkpt lat="48.59682" lon="-3.1746">
        <ele>117</ele>
        <time>2024-06-04T11:10:22Z</time>
      </trkpt>
      <trkpt lat="48.59734" lon="-3.17536">
        <ele>118</ele>
        <time>2024-06-04T11:10:39Z</time>
      </trkpt>
      <trkpt lat="48.5984" lon="-3.17422">
        <ele>121</ele>
        <time>2024-06-04T11:11:09Z</time>
      </trkpt>
      <trkpt lat="48.60017" lon="-3.17326">
        <ele>120</ele>
        <time>2024-06-04T11:11:53Z</time>
      </trkpt>
      <trkpt lat="48.60207" lon="-3.17304">
        <ele>121</ele>
        <time>2024-06-04T11:12:38Z</time>
      </trkpt>
      <trkpt lat="48.60201" lon="-3.1725">
        <ele>119</ele>
        <time>2024-06-04T11:12:46Z</time>
      </trkpt>
      <trkpt lat="48.60232" lon="-3.17047">
        <ele>119</ele>
        <time>2024-06-04T11:13:18Z</time>
      </trkpt>
      <trkpt lat="48.6026" lon="-3.17039">
        <ele>119</ele>
        <time>2024-06-04T11:13:25Z</time>
      </trkpt>
      <trkpt lat="48.60293" lon="-3.1697">
        <ele>120</ele>
        <time>2024-06-04T11:13:38Z</time>
      </trkpt>
      <trkpt lat="48.60268" lon="-3.16895">
        <ele>120</ele>
        <time>2024-06-04T11:13:51Z</time>
      </trkpt>
      <trkpt lat="48.60299" lon="-3.16776">
        <ele>119</ele>
        <time>2024-06-04T11:14:11Z</time>
      </trkpt>
      <trkpt lat="48.60269" lon="-3.16702">
        <ele>118</ele>
        <time>2024-06-04T11:14:24Z</time>
      </trkpt>
      <trkpt lat="48.60292" lon="-3.16576">
        <ele>114</ele>
        <time>2024-06-04T11:14:44Z</time>
      </trkpt>
      <trkpt lat="48.60133" lon="-3.16539">
        <ele>112</ele>
        <time>2024-06-04T11:15:22Z</time>
      </trkpt>
      <trkpt lat="48.60171" lon="-3.16269">
        <ele>104</ele>
        <time>2024-06-04T11:16:05Z</time>
      </trkpt>
      <trkpt lat="48.60196" lon="-3.16157">
        <ele>103</ele>
        <time>2024-06-04T11:16:23Z</time>
      </trkpt>
      <trkpt lat="48.60188" lon="-3.16083">
        <ele>102</ele>
        <time>2024-06-04T11:16:34Z</time>
      </trkpt>
      <trkpt lat="48.60125" lon="-3.15989">
        <ele>102</ele>
        <time>2024-06-04T11:16:55Z</time>
      </trkpt>
      <trkpt lat="48.60207" lon="-3.15956">
        <ele>101</ele>
        <time>2024-06-04T11:17:15Z</time>
      </trkpt>
      <trkpt lat="48.60325" lon="-3.15857">
        <ele>101</ele>
        <time>2024-06-04T11:17:46Z</time>
      </trkpt>
      <trkpt lat="48.60367" lon="-3.15853">
        <ele>102</ele>
        <time>2024-06-04T11:17:56Z</time>
      </trkpt>
      <trkpt lat="48.60449" lon="-3.15818">
        <ele>104</ele>
        <time>2024-06-04T11:18:16Z</time>
      </trkpt>
      <trkpt lat="48.60494" lon="-3.15748">
        <ele>105</ele>
        <time>2024-06-04T11:18:31Z</time>
      </trkpt>
      <trkpt lat="48.60637" lon="-3.15757">
        <ele>107</ele>
        <time>2024-06-04T11:19:05Z</time>
      </trkpt>
      <trkpt lat="48.60718" lon="-3.15724">
        <ele>107</ele>
        <time>2024-06-04T11:19:24Z</time>
      </trkpt>
      <trkpt lat="48.60725" lon="-3.15552">
        <ele>107</ele>
        <time>2024-06-04T11:19:51Z</time>
      </trkpt>
      <trkpt lat="48.60738" lon="-3.15496">
        <ele>107</ele>
        <time>2024-06-04T11:20:00Z</time>
      </trkpt>
      <trkpt lat="48.60762" lon="-3.15436">
        <ele>105</ele>
        <time>2024-06-04T11:20:11Z</time>
      </trkpt>
      <trkpt lat="48.60769" lon="-3.15373">
        <ele>104</ele>
        <time>2024-06-04T11:20:21Z</time>
      </trkpt>
      <trkpt lat="48.60801" lon="-3.15373">
        <ele>103</ele>
        <time>2024-06-04T11:20:28Z</time>
      </trkpt>
      <trkpt lat="48.60811" lon="-3.15316">
        <ele>103</ele>
        <time>2024-06-04T11:20:37Z</time>
      </trkpt>
      <trkpt lat="48.60795" lon="-3.15259">
        <ele>103</ele>
        <time>2024-06-04T11:20:47Z</time>
      </trkpt>
      <trkpt lat="48.608" lon="-3.15202">
        <ele>103</ele>
        <time>2024-06-04T11:20:56Z</time>
      </trkpt>
      <trkpt lat="48.60862" lon="-3.15086">
        <ele>99</ele>
        <time>2024-06-04T11:21:19Z</time>
      </trkpt>
      <trkpt lat="48.60952" lon="-3.15163">
        <ele>97</ele>
        <time>2024-06-04T11:21:43Z</time>
      </trkpt>
      <trkpt lat="48.60994" lon="-3.15181">
        <ele>96</ele>
        <time>2024-06-04T11:21:53Z</time>
      </trkpt>
      <trkpt lat="48.6104" lon="-3.15106">
        <ele>95</ele>
        <time>2024-06-04T11:22:09Z</time>
      </trkpt>
      <trkpt lat="48.61107" lon="-3.15086">
        <ele>95</ele>
        <time>2024-06-04T11:22:25Z</time>
      </trkpt>
      <trkpt lat="48.61062" lon="-3.14956">
        <ele>89</ele>
        <time>2024-06-04T11:22:48Z</time>
      </trkpt>
      <trkpt lat="48.61014" lon="-3.14899">
        <ele>86</ele>
        <time>2024-06-04T11:23:02Z</time>
      </trkpt>
      <trkpt lat="48.6102" lon="-3.14722">
        <ele>75</ele>
        <time>2024-06-04T11:23:29Z</time>
      </trkpt>
      <trkpt lat="48.6097" lon="-3.14581">
        <ele>58</ele>
        <time>2024-06-04T11:23:54Z</time>
      </trkpt>
      <trkpt lat="48.61161" lon="-3.14572">
        <ele>53</ele>
        <time>2024-06-04T11:24:39Z</time>
      </trkpt>
      <trkpt lat="48.61221" lon="-3.14602">
        <ele>56</ele>
        <time>2024-06-04T11:24:53Z</time>
      </trkpt>
      <trkpt lat="48.61298" lon="-3.14528">
        <ele>59</ele>
        <time>2024-06-04T11:25:15Z</time>
      </trkpt>
      <trkpt lat="48.61297" lon="-3.14449">
        <ele>57</ele>
        <time>2024-06-04T11:25:27Z</time>
      </trkpt>
      <trkpt lat="48.61162" lon="-3.14258">
        <ele>54</ele>
        <time>2024-06-04T11:26:10Z</time>
      </trkpt>
      <trkpt lat="48.60836" lon="-3.14247">
        <ele>61</ele>
        <time>2024-06-04T11:27:26Z</time>
      </trkpt>
      <trkpt lat="48.60671" lon="-3.1429">
        <ele>73</ele>
        <time>2024-06-04T11:28:05Z</time>
      </trkpt>
      <trkpt lat="48.60699" lon="-3.14352">
        <ele>71</ele>
        <time>2024-06-04T11:28:17Z</time>
      </trkpt>
      <trkpt lat="48.60854" lon="-3.14392">
        <ele>56</ele>
        <time>2024-06-04T11:28:54Z</time>
      </trkpt>
      <trkpt lat="48.6091" lon="-3.14439">
        <ele>52</ele>
        <time>2024-06-04T11:29:08Z</time>
      </trkpt>
      <trkpt lat="48.60718" lon="-3.14582">
        <ele>58</ele>
        <time>2024-06-04T11:29:58Z</time>
      </trkpt>
      <trkpt lat="48.60641" lon="-3.14604">
        <ele>61</ele>
        <time>2024-06-04T11:30:17Z</time>
      </trkpt>
      <trkpt lat="48.60557" lon="-3.14582">
        <ele>62</ele>
        <time>2024-06-04T11:30:37Z</time>
      </trkpt>
      <trkpt lat="48.60493" lon="-3.14536">
        <ele>68</ele>
        <time>2024-06-04T11:30:53Z</time>
      </trkpt>
      <trkpt lat="48.60395" lon="-3.14533">
        <ele>69</ele>
        <time>2024-06-04T11:31:16Z</time>
      </trkpt>
      <trkpt lat="48.60328" lon="-3.14679">
        <ele>65</ele>
        <time>2024-06-04T11:31:44Z</time>
      </trkpt>
      <trkpt lat="48.60135" lon="-3.14779">
        <ele>63</ele>
        <time>2024-06-04T11:32:31Z</time>
      </trkpt>
      <trkpt lat="48.60015" lon="-3.14732">
        <ele>70</ele>
        <time>2024-06-04T11:33:00Z</time>
      </trkpt>
      <trkpt lat="48.59974" lon="-3.14742">
        <ele>69</ele>
        <time>2024-06-04T11:33:10Z</time>
      </trkpt>
      <trkpt lat="48.59862" lon="-3.14657">
        <ele>63</ele>
        <time>2024-06-04T11:33:39Z</time>
      </trkpt>
      <trkpt lat="48.59822" lon="-3.14593">
        <ele>70</ele>
        <time>2024-06-04T11:33:53Z</time>
      </trkpt>
      <trkpt lat="48.59723" lon="-3.14557">
        <ele>74</ele>
        <time>2024-06-04T11:34:16Z</time>
      </trkpt>
      <trkpt lat="48.59621" lon="-3.14618">
        <ele>71</ele>
        <time>2024-06-04T11:34:42Z</time>
      </trkpt>
      <trkpt lat="48.59542" lon="-3.14751">
        <ele>65</ele>
        <time>2024-06-04T11:35:10Z</time>
      </trkpt>
      <trkpt lat="48.59467" lon="-3.14746">
        <ele>63</ele>
        <time>2024-06-04T11:35:27Z</time>
      </trkpt>
      <trkpt lat="48.59379" lon="-3.14664">
        <ele>73</ele>
        <time>2024-06-04T11:35:51Z</time>
      </trkpt>
      <trkpt lat="48.5935" lon="-3.14614">
        <ele>78</ele>
        <time>2024-06-04T11:36:02Z</time>
      </trkpt>
      <trkpt lat="48.59216" lon="-3.14406">
        <ele>89</ele>
        <time>2024-06-04T11:36:46Z</time>
      </trkpt>
      <trkpt lat="48.59209" lon="-3.14211">
        <ele>95</ele>
        <time>2024-06-04T11:37:17Z</time>
      </trkpt>
      <trkpt lat="48.59129" lon="-3.14222">
        <ele>91</ele>
        <time>2024-06-04T11:37:35Z</time>
      </trkpt>
      <trkpt lat="48.58982" lon="-3.14305">
        <ele>91</ele>
        <time>2024-06-04T11:38:12Z</time>
      </trkpt>
      <trkpt lat="48.58908" lon="-3.14192">
        <ele>96</ele>
        <time>2024-06-04T11:38:37Z</time>
      </trkpt>
      <trkpt lat="48.5882" lon="-3.14204">
        <ele>102</ele>
        <time>2024-06-04T11:38:57Z</time>
      </trkpt>
      <trkpt lat="48.58797" lon="-3.14195">
        <ele>103</ele>
        <time>2024-06-04T11:39:03Z</time>
      </trkpt>
      <trkpt lat="48.58797" lon="-3.14145">
        <ele>103</ele>
        <time>2024-06-04T11:39:11Z</time>
      </trkpt>
      <trkpt lat="48.58786" lon="-3.14127">
        <ele>104</ele>
        <time>2024-06-04T11:39:14Z</time>
      </trkpt>
      <trkpt lat="48.58699" lon="-3.14181">
        <ele>111</ele>
        <time>2024-06-04T11:39:36Z</time>
      </trkpt>
      <trkpt lat="48.58663" lon="-3.14044">
        <ele>114</ele>
        <time>2024-06-04T11:39:59Z</time>
      </trkpt>
      <trkpt lat="48.58653" lon="-3.14018">
        <ele>115</ele>
        <time>2024-06-04T11:40:04Z</time>
      </trkpt>
      <trkpt lat="48.5865" lon="-3.1378">
        <ele>112</ele>
        <time>2024-06-04T11:40:40Z</time>
      </trkpt>
      <trkpt lat="48.58639" lon="-3.13712">
        <ele>111</ele>
        <time>2024-06-04T11:40:51Z</time>
      </trkpt>
      <trkpt lat="48.58637" lon="-3.13497">
        <ele>110</ele>
        <time>2024-06-04T11:41:25Z</time>
      </trkpt>
      <trkpt lat="48.58665" lon="-3.13477">
        <ele>109</ele>
        <time>2024-06-04T11:41:32Z</time>
      </trkpt>
      <trkpt lat="48.58671" lon="-3.13427">
        <ele>110</ele>
        <time>2024-06-04T11:41:40Z</time>
      </trkpt>
      <trkpt lat="48.58662" lon="-3.13405">
        <ele>110</ele>
        <time>2024-06-04T11:41:44Z</time>
      </trkpt>
      <trkpt lat="48.58668" lon="-3.13338">
        <ele>106</ele>
        <time>2024-06-04T11:41:54Z</time>
      </trkpt>
      <trkpt lat="48.58635" lon="-3.13322">
        <ele>107</ele>
        <time>2024-06-04T11:42:02Z</time>
      </trkpt>
      <trkpt lat="48.58671" lon="-3.13259">
        <ele>102</ele>
        <time>2024-06-04T11:42:15Z</time>
      </trkpt>
      <trkpt lat="48.58709" lon="-3.13259">
        <ele>101</ele>
        <time>2024-06-04T11:42:24Z</time>
      </trkpt>
      <trkpt lat="48.58743" lon="-3.13181">
        <ele>98</ele>
        <time>2024-06-04T11:42:38Z</time>
      </trkpt>
      <trkpt lat="48.58759" lon="-3.13098">
        <ele>97</ele>
        <time>2024-06-04T11:42:52Z</time>
      </trkpt>
      <trkpt lat="48.58737" lon="-3.12947">
        <ele>91</ele>
        <time>2024-06-04T11:43:16Z</time>
      </trkpt>
      <trkpt lat="48.58739" lon="-3.12775">
        <ele>78</ele>
        <time>2024-06-04T11:43:42Z</time>
      </trkpt>
      <trkpt lat="48.58655" lon="-3.12779">
        <ele>80</ele>
        <time>2024-06-04T11:44:02Z</time>
      </trkpt>
      <trkpt lat="48.58552" lon="-3.12818">
        <ele>90</ele>
        <time>2024-06-04T11:44:27Z</time>
      </trkpt>
      <trkpt lat="48.5846" lon="-3.12788">
        <ele>97</ele>
        <time>2024-06-04T11:44:49Z</time>
      </trkpt>
      <trkpt lat="48.58406" lon="-3.12739">
        <ele>100</ele>
        <time>2024-06-04T11:45:03Z</time>
      </trkpt>
      <trkpt lat="48.5836" lon="-3.12712">
        <ele>102</ele>
        <time>2024-06-04T11:45:15Z</time>
      </trkpt>
      <trkpt lat="48.58284" lon="-3.12616">
        <ele>104</ele>
        <time>2024-06-04T11:45:38Z</time>
      </trkpt>
      <trkpt lat="48.58195" lon="-3.12606">
        <ele>101</ele>
        <time>2024-06-04T11:45:59Z</time>
      </trkpt>
      <trkpt lat="48.58167" lon="-3.12555">
        <ele>94</ele>
        <time>2024-06-04T11:46:09Z</time>
      </trkpt>
      <trkpt lat="48.58234" lon="-3.12474">
        <ele>94</ele>
        <time>2024-06-04T11:46:29Z</time>
      </trkpt>
      <trkpt lat="48.58295" lon="-3.12412">
        <ele>89</ele>
        <time>2024-06-04T11:46:46Z</time>
      </trkpt>
      <trkpt lat="48.58314" lon="-3.12317">
        <ele>95</ele>
        <time>2024-06-04T11:47:01Z</time>
      </trkpt>
      <trkpt lat="48.584" lon="-3.12232">
        <ele>98</ele>
        <time>2024-06-04T11:47:25Z</time>
      </trkpt>
      <trkpt lat="48.58495" lon="-3.12239">
        <ele>106</ele>
        <time>2024-06-04T11:47:48Z</time>
      </trkpt>
      <trkpt lat="48.58556" lon="-3.12142">
        <ele>113</ele>
        <time>2024-06-04T11:48:08Z</time>
      </trkpt>
      <trkpt lat="48.58537" lon="-3.11956">
        <ele>113</ele>
        <time>2024-06-04T11:48:37Z</time>
      </trkpt>
      <trkpt lat="48.58565" lon="-3.11884">
        <ele>118</ele>
        <time>2024-06-04T11:48:50Z</time>
      </trkpt>
      <trkpt lat="48.58617" lon="-3.11853">
        <ele>120</ele>
        <time>2024-06-04T11:49:03Z</time>
      </trkpt>
      <trkpt lat="48.58641" lon="-3.11773">
        <ele>119</ele>
        <time>2024-06-04T11:49:17Z</time>
      </trkpt>
      <trkpt lat="48.58503" lon="-3.1174">
        <ele>116</ele>
        <time>2024-06-04T11:49:50Z</time>
      </trkpt>
      <trkpt lat="48.5842" lon="-3.11712">
        <ele>115</ele>
        <time>2024-06-04T11:50:09Z</time>
      </trkpt>
      <trkpt lat="48.58444" lon="-3.11423">
        <ele>116</ele>
        <time>2024-06-04T11:50:54Z</time>
      </trkpt>
      <trkpt lat="48.5834" lon="-3.11168">
        <ele>114</ele>
        <time>2024-06-04T11:51:41Z</time>
      </trkpt>
      <trkpt lat="48.58279" lon="-3.11113">
        <ele>115</ele>
        <time>2024-06-04T11:51:57Z</time>
      </trkpt>
      <trkpt lat="48.58231" lon="-3.11124">
        <ele>117</ele>
        <time>2024-06-04T11:52:09Z</time>
      </trkpt>
      <trkpt lat="48.58142" lon="-3.10991">
        <ele>120</ele>
        <time>2024-06-04T11:52:38Z</time>
      </trkpt>
      <trkpt lat="48.58011" lon="-3.10908">
        <ele>118</ele>
        <time>2024-06-04T11:53:11Z</time>
      </trkpt>
      <trkpt lat="48.57964" lon="-3.10996">
        <ele>118</ele>
        <time>2024-06-04T11:53:29Z</time>
      </trkpt>
      <trkpt lat="48.57903" lon="-3.11027">
        <ele>117</ele>
        <time>2024-06-04T11:53:44Z</time>
      </trkpt>
      <trkpt lat="48.57855" lon="-3.1083">
        <ele>121</ele>
        <time>2024-06-04T11:54:16Z</time>
      </trkpt>
      <trkpt lat="48.57863" lon="-3.10733">
        <ele>122</ele>
        <time>2024-06-04T11:54:31Z</time>
      </trkpt>
      <trkpt lat="48.57784" lon="-3.10583">
        <ele>122</ele>
        <time>2024-06-04T11:55:01Z</time>
      </trkpt>
      <trkpt lat="48.57644" lon="-3.10478">
        <ele>122</ele>
        <time>2024-06-04T11:55:37Z</time>
      </trkpt>
      <trkpt lat="48.5749" lon="-3.10445">
        <ele>122</ele>
        <time>2024-06-04T11:56:14Z</time>
      </trkpt>
      <trkpt lat="48.57479" lon="-3.1025">
        <ele>125</ele>
        <time>2024-06-04T11:56:44Z</time>
      </trkpt>
      <trkpt lat="48.57564" lon="-3.09909">
        <ele>122</ele>
        <time>2024-06-04T11:57:40Z</time>
      </trkpt>
      <trkpt lat="48.57604" lon="-3.09593">
        <ele>121</ele>
        <time>2024-06-04T11:58:30Z</time>
      </trkpt>
      <trkpt lat="48.57337" lon="-3.09508">
        <ele>125</ele>
        <time>2024-06-04T11:59:34Z</time>
      </trkpt>
      <trkpt lat="48.57266" lon="-3.09473">
        <ele>127</ele>
        <time>2024-06-04T11:59:51Z</time>
      </trkpt>
      <trkpt lat="48.57198" lon="-3.09362">
        <ele>129</ele>
        <time>2024-06-04T12:00:14Z</time>
      </trkpt>
      <trkpt lat="48.57101" lon="-3.09387">
        <ele>130</ele>
        <time>2024-06-04T12:00:37Z</time>
      </trkpt>
      <trkpt lat="48.57056" lon="-3.09441">
        <ele>130</ele>
        <time>2024-06-04T12:00:51Z</time>
      </trkpt>
      <trkpt lat="48.56952" lon="-3.09375">
        <ele>131</ele>
        <time>2024-06-04T12:01:17Z</time>
      </trkpt>
      <trkpt lat="48.56901" lon="-3.0963">
        <ele>133</ele>
        <time>2024-06-04T12:01:58Z</time>
      </trkpt>
      <trkpt lat="48.56807" lon="-3.09561">
        <ele>133</ele>
        <time>2024-06-04T12:02:23Z</time>
      </trkpt>
      <trkpt lat="48.56673" lon="-3.09366">
        <ele>132</ele>
        <time>2024-06-04T12:03:06Z</time>
      </trkpt>
      <trkpt lat="48.56568" lon="-3.09261">
        <ele>131</ele>
        <time>2024-06-04T12:03:35Z</time>
      </trkpt>
      <trkpt lat="48.56528" lon="-3.09161">
        <ele>132</ele>
        <time>2024-06-04T12:03:54Z</time>
      </trkpt>
      <trkpt lat="48.56398" lon="-3.09028">
        <ele>132</ele>
        <time>2024-06-04T12:04:30Z</time>
      </trkpt>
      <trkpt lat="48.56319" lon="-3.0893">
        <ele>130</ele>
        <time>2024-06-04T12:04:54Z</time>
      </trkpt>
      <trkpt lat="48.56556" lon="-3.08764">
        <ele>131</ele>
        <time>2024-06-04T12:05:55Z</time>
      </trkpt>
      <trkpt lat="48.56661" lon="-3.08673">
        <ele>130</ele>
        <time>2024-06-04T12:06:23Z</time>
      </trkpt>
      <trkpt lat="48.56898" lon="-3.0863">
        <ele>128</ele>
        <time>2024-06-04T12:07:19Z</time>
      </trkpt>
      <trkpt lat="48.56747" lon="-3.08445">
        <ele>128</ele>
        <time>2024-06-04T12:08:04Z</time>
      </trkpt>
      <trkpt lat="48.56667" lon="-3.0853">
        <ele>130</ele>
        <time>2024-06-04T12:08:27Z</time>
      </trkpt>
      <trkpt lat="48.56612" lon="-3.08651">
        <ele>130</ele>
        <time>2024-06-04T12:08:50Z</time>
      </trkpt>
      <trkpt lat="48.56552" lon="-3.08715">
        <ele>131</ele>
        <time>2024-06-04T12:09:07Z</time>
      </trkpt>
      <trkpt lat="48.56434" lon="-3.08609">
        <ele>133</ele>
        <time>2024-06-04T12:09:39Z</time>
      </trkpt>
      <trkpt lat="48.56498" lon="-3.08405">
        <ele>130</ele>
        <time>2024-06-04T12:10:14Z</time>
      </trkpt>
      <trkpt lat="48.56488" lon="-3.0829">
        <ele>130</ele>
        <time>2024-06-04T12:10:32Z</time>
      </trkpt>
      <trkpt lat="48.56522" lon="-3.08181">
        <ele>130</ele>
        <time>2024-06-04T12:10:51Z</time>
      </trkpt>
      <trkpt lat="48.56562" lon="-3.08138">
        <ele>128</ele>
        <time>2024-06-04T12:11:02Z</time>
      </trkpt>
      <trkpt lat="48.56504" lon="-3.08063">
        <ele>129</ele>
        <time>2024-06-04T12:11:20Z</time>
      </trkpt>
      <trkpt lat="48.56518" lon="-3.0795">
        <ele>126</ele>
        <time>2024-06-04T12:11:38Z</time>
      </trkpt>
      <trkpt lat="48.56522" lon="-3.07882">
        <ele>125</ele>
        <time>2024-06-04T12:11:48Z</time>
      </trkpt>
      <trkpt lat="48.56517" lon="-3.07774">
        <ele>125</ele>
        <time>2024-06-04T12:12:05Z</time>
      </trkpt>
      <trkpt lat="48.56558" lon="-3.07753">
        <ele>124</ele>
        <time>2024-06-04T12:12:15Z</time>
      </trkpt>
      <trkpt lat="48.56601" lon="-3.07772">
        <ele>123</ele>
        <time>2024-06-04T12:12:26Z</time>
      </trkpt>
      <trkpt lat="48.56638" lon="-3.07814">
        <ele>123</ele>
        <time>2024-06-04T12:12:36Z</time>
      </trkpt>
      <trkpt lat="48.56668" lon="-3.07818">
        <ele>123</ele>
        <time>2024-06-04T12:12:43Z</time>
      </trkpt>
      <trkpt lat="48.56714" lon="-3.07752">
        <ele>122</ele>
        <time>2024-06-04T12:12:58Z</time>
      </trkpt>
      <trkpt lat="48.56739" lon="-3.07692">
        <ele>121</ele>
        <time>2024-06-04T12:13:09Z</time>
      </trkpt>
      <trkpt lat="48.56778" lon="-3.07644">
        <ele>120</ele>
        <time>2024-06-04T12:13:21Z</time>
      </trkpt>
      <trkpt lat="48.56847" lon="-3.07615">
        <ele>120</ele>
        <time>2024-06-04T12:13:38Z</time>
      </trkpt>
      <trkpt lat="48.56929" lon="-3.07552">
        <ele>119</ele>
        <time>2024-06-04T12:13:59Z</time>
      </trkpt>
      <trkpt lat="48.56964" lon="-3.07543">
        <ele>119</ele>
        <time>2024-06-04T12:14:07Z</time>
      </trkpt>
      <trkpt lat="48.56993" lon="-3.07469">
        <ele>118</ele>
        <time>2024-06-04T12:14:21Z</time>
      </trkpt>
      <trkpt lat="48.57015" lon="-3.07456">
        <ele>118</ele>
        <time>2024-06-04T12:14:26Z</time>
      </trkpt>
      <trkpt lat="48.57034" lon="-3.07427">
        <ele>119</ele>
        <time>2024-06-04T12:14:33Z</time>
      </trkpt>
      <trkpt lat="48.57062" lon="-3.07396">
        <ele>119</ele>
        <time>2024-06-04T12:14:41Z</time>
      </trkpt>
      <trkpt lat="48.57078" lon="-3.07349">
        <ele>119</ele>
        <time>2024-06-04T12:14:49Z</time>
      </trkpt>
      <trkpt lat="48.57106" lon="-3.07228">
        <ele>120</ele>
        <time>2024-06-04T12:15:09Z</time>
      </trkpt>
      <trkpt lat="48.57126" lon="-3.07188">
        <ele>123</ele>
        <time>2024-06-04T12:15:16Z</time>
      </trkpt>
      <trkpt lat="48.57115" lon="-3.07068">
        <ele>128</ele>
        <time>2024-06-04T12:15:35Z</time>
      </trkpt>
      <trkpt lat="48.57031" lon="-3.07001">
        <ele>119</ele>
        <time>2024-06-04T12:15:57Z</time>
      </trkpt>
      <trkpt lat="48.56952" lon="-3.07028">
        <ele>115</ele>
        <time>2024-06-04T12:16:16Z</time>
      </trkpt>
      <trkpt lat="48.56927" lon="-3.07073">
        <ele>114</ele>
        <time>2024-06-04T12:16:25Z</time>
      </trkpt>
      <trkpt lat="48.56881" lon="-3.07087">
        <ele>115</ele>
        <time>2024-06-04T12:16:36Z</time>
      </trkpt>
      <trkpt lat="48.56798" lon="-3.07063">
        <ele>117</ele>
        <time>2024-06-04T12:16:56Z</time>
      </trkpt>
      <trkpt lat="48.56756" lon="-3.07144">
        <ele>117</ele>
        <time>2024-06-04T12:17:12Z</time>
      </trkpt>
      <trkpt lat="48.56693" lon="-3.07362">
        <ele>120</ele>
        <time>2024-06-04T12:17:49Z</time>
      </trkpt>
      <trkpt lat="48.56668" lon="-3.07424">
        <ele>120</ele>
        <time>2024-06-04T12:18:00Z</time>
      </trkpt>
      <trkpt lat="48.56605" lon="-3.07564">
        <ele>121</ele>
        <time>2024-06-04T12:18:26Z</time>
      </trkpt>
      <trkpt lat="48.56598" lon="-3.07616">
        <ele>121</ele>
        <time>2024-06-04T12:18:34Z</time>
      </trkpt>
      <trkpt lat="48.56474" lon="-3.07802">
        <ele>125</ele>
        <time>2024-06-04T12:19:15Z</time>
      </trkpt>
      <trkpt lat="48.56359" lon="-3.07923">
        <ele>127</ele>
        <time>2024-06-04T12:19:48Z</time>
      </trkpt>
      <trkpt lat="48.56281" lon="-3.08081">
        <ele>131</ele>
        <time>2024-06-04T12:20:18Z</time>
      </trkpt>
      <trkpt lat="48.56243" lon="-3.08129">
        <ele>131</ele>
        <time>2024-06-04T12:20:30Z</time>
      </trkpt>
      <trkpt lat="48.56195" lon="-3.08266">
        <ele>132</ele>
        <time>2024-06-04T12:20:54Z</time>
      </trkpt>
      <trkpt lat="48.56004" lon="-3.08148">
        <ele>130</ele>
        <time>2024-06-04T12:21:42Z</time>
      </trkpt>
      <trkpt lat="48.55958" lon="-3.08151">
        <ele>130</ele>
        <time>2024-06-04T12:21:53Z</time>
      </trkpt>
      <trkpt lat="48.55841" lon="-3.08063">
        <ele>131</ele>
        <time>2024-06-04T12:22:23Z</time>
      </trkpt>
      <trkpt lat="48.55737" lon="-3.07884">
        <ele>129</ele>
        <time>2024-06-04T12:23:00Z</time>
      </trkpt>
      <trkpt lat="48.55735" lon="-3.07783">
        <ele>129</ele>
        <time>2024-06-04T12:23:16Z</time>
      </trkpt>
      <trkpt lat="48.55592" lon="-3.07771">
        <ele>128</ele>
        <time>2024-06-04T12:23:49Z</time>
      </trkpt>
      <trkpt lat="48.55558" lon="-3.07711">
        <ele>129</ele>
        <time>2024-06-04T12:24:01Z</time>
      </trkpt>
      <trkpt lat="48.5554" lon="-3.07665">
        <ele>130</ele>
        <time>2024-06-04T12:24:10Z</time>
      </trkpt>
      <trkpt lat="48.5548" lon="-3.07674">
        <ele>130</ele>
        <time>2024-06-04T12:24:24Z</time>
      </trkpt>
      <trkpt lat="48.55415" lon="-3.07659">
        <ele>129</ele>
        <time>2024-06-04T12:24:39Z</time>
      </trkpt>
      <trkpt lat="48.55444" lon="-3.07847">
        <ele>128</ele>
        <time>2024-06-04T12:25:09Z</time>
      </trkpt>
      <trkpt lat="48.55502" lon="-3.07978">
        <ele>128</ele>
        <time>2024-06-04T12:25:33Z</time>
      </trkpt>
      <trkpt lat="48.55554" lon="-3.0816">
        <ele>128</ele>
        <time>2024-06-04T12:26:04Z</time>
      </trkpt>
      <trkpt lat="48.55564" lon="-3.08348">
        <ele>126</ele>
        <time>2024-06-04T12:26:33Z</time>
      </trkpt>
      <trkpt lat="48.55663" lon="-3.08645">
        <ele>121</ele>
        <time>2024-06-04T12:27:24Z</time>
      </trkpt>
      <trkpt lat="48.55618" lon="-3.08654">
        <ele>121</ele>
        <time>2024-06-04T12:27:35Z</time>
      </trkpt>
      <trkpt lat="48.55542" lon="-3.08676">
        <ele>120</ele>
        <time>2024-06-04T12:27:53Z</time>
      </trkpt>
      <trkpt lat="48.55389" lon="-3.08733">
        <ele>117</ele>
        <time>2024-06-04T12:28:30Z</time>
      </trkpt>
      <trkpt lat="48.55361" lon="-3.08679">
        <ele>118</ele>
        <time>2024-06-04T12:28:40Z</time>
      </trkpt>
      <trkpt lat="48.55373" lon="-3.08545">
        <ele>120</ele>
        <time>2024-06-04T12:29:01Z</time>
      </trkpt>
      <trkpt lat="48.55385" lon="-3.08445">
        <ele>121</ele>
        <time>2024-06-04T12:29:17Z</time>
      </trkpt>
      <trkpt lat="48.55331" lon="-3.08399">
        <ele>120</ele>
        <time>2024-06-04T12:29:32Z</time>
      </trkpt>
      <trkpt lat="48.55267" lon="-3.0839">
        <ele>122</ele>
        <time>2024-06-04T12:29:47Z</time>
      </trkpt>
      <trkpt lat="48.55186" lon="-3.08302">
        <ele>125</ele>
        <time>2024-06-04T12:30:10Z</time>
      </trkpt>
      <trkpt lat="48.5515" lon="-3.08278">
        <ele>127</ele>
        <time>2024-06-04T12:30:19Z</time>
      </trkpt>
      <trkpt lat="48.55084" lon="-3.07789">
        <ele>133</ele>
        <time>2024-06-04T12:31:36Z</time>
      </trkpt>
      <trkpt lat="48.5498" lon="-3.07701">
        <ele>136</ele>
        <time>2024-06-04T12:32:04Z</time>
      </trkpt>
      <trkpt lat="48.54815" lon="-3.07671">
        <ele>139</ele>
        <time>2024-06-04T12:32:43Z</time>
      </trkpt>
      <trkpt lat="48.54737" lon="-3.0768">
        <ele>139</ele>
        <time>2024-06-04T12:33:01Z</time>
      </trkpt>
      <trkpt lat="48.54622" lon="-3.07884">
        <ele>132</ele>
        <time>2024-06-04T12:33:43Z</time>
      </trkpt>
      <trkpt lat="48.54618" lon="-3.07984">
        <ele>130</ele>
        <time>2024-06-04T12:33:58Z</time>
      </trkpt>
      <trkpt lat="48.5467" lon="-3.08099">
        <ele>129</ele>
        <time>2024-06-04T12:34:20Z</time>
      </trkpt>
      <trkpt lat="48.54724" lon="-3.08278">
        <ele>130</ele>
        <time>2024-06-04T12:34:50Z</time>
      </trkpt>
      <trkpt lat="48.54805" lon="-3.08396">
        <ele>128</ele>
        <time>2024-06-04T12:35:16Z</time>
      </trkpt>
      <trkpt lat="48.54807" lon="-3.08445">
        <ele>128</ele>
        <time>2024-06-04T12:35:24Z</time>
      </trkpt>
      <trkpt lat="48.54921" lon="-3.08472">
        <ele>127</ele>
        <time>2024-06-04T12:35:51Z</time>
      </trkpt>
      <trkpt lat="48.55084" lon="-3.08484">
        <ele>126</ele>
        <time>2024-06-04T12:36:29Z</time>
      </trkpt>
      <trkpt lat="48.55148" lon="-3.08493">
        <ele>124</ele>
        <time>2024-06-04T12:36:44Z</time>
      </trkpt>
      <trkpt lat="48.55203" lon="-3.08548">
        <ele>123</ele>
        <time>2024-06-04T12:36:59Z</time>
      </trkpt>
      <trkpt lat="48.55323" lon="-3.0941">
        <ele>118</ele>
        <time>2024-06-04T12:39:15Z</time>
      </trkpt>
      <trkpt lat="48.55315" lon="-3.09501">
        <ele>120</ele>
        <time>2024-06-04T12:39:30Z</time>
      </trkpt>
      <trkpt lat="48.55251" lon="-3.09568">
        <ele>121</ele>
        <time>2024-06-04T12:39:48Z</time>
      </trkpt>
      <trkpt lat="48.55215" lon="-3.09583">
        <ele>121</ele>
        <time>2024-06-04T12:39:57Z</time>
      </trkpt>
      <trkpt lat="48.5517" lon="-3.0955">
        <ele>122</ele>
        <time>2024-06-04T12:40:08Z</time>
      </trkpt>
      <trkpt lat="48.55134" lon="-3.09786">
        <ele>120</ele>
        <time>2024-06-04T12:40:46Z</time>
      </trkpt>
      <trkpt lat="48.55128" lon="-3.09941">
        <ele>117</ele>
        <time>2024-06-04T12:41:10Z</time>
      </trkpt>
      <trkpt lat="48.5512" lon="-3.10023">
        <ele>116</ele>
        <time>2024-06-04T12:41:22Z</time>
      </trkpt>
      <trkpt lat="48.55166" lon="-3.10071">
        <ele>116</ele>
        <time>2024-06-04T12:41:36Z</time>
      </trkpt>
      <trkpt lat="48.55168" lon="-3.10138">
        <ele>117</ele>
        <time>2024-06-04T12:41:46Z</time>
      </trkpt>
      <trkpt lat="48.55305" lon="-3.1022">
        <ele>118</ele>
        <time>2024-06-04T12:42:20Z</time>
      </trkpt>
      <trkpt lat="48.55446" lon="-3.10281">
        <ele>120</ele>
        <time>2024-06-04T12:42:55Z</time>
      </trkpt>
      <trkpt lat="48.5545" lon="-3.10345">
        <ele>121</ele>
        <time>2024-06-04T12:43:05Z</time>
      </trkpt>
      <trkpt lat="48.5549" lon="-3.10572">
        <ele>121</ele>
        <time>2024-06-04T12:43:41Z</time>
      </trkpt>
      <trkpt lat="48.55492" lon="-3.10657">
        <ele>120</ele>
        <time>2024-06-04T12:43:54Z</time>
      </trkpt>
      <trkpt lat="48.55542" lon="-3.10873">
        <ele>121</ele>
        <time>2024-06-04T12:44:29Z</time>
      </trkpt>
      <trkpt lat="48.556" lon="-3.11307">
        <ele>117</ele>
        <time>2024-06-04T12:45:38Z</time>
      </trkpt>
      <trkpt lat="48.55671" lon="-3.11313">
        <ele>116</ele>
        <time>2024-06-04T12:45:54Z</time>
      </trkpt>
      <trkpt lat="48.55765" lon="-3.11325">
        <ele>120</ele>
        <time>2024-06-04T12:46:16Z</time>
      </trkpt>
      <trkpt lat="48.55777" lon="-3.11522">
        <ele>121</ele>
        <time>2024-06-04T12:46:47Z</time>
      </trkpt>
      <trkpt lat="48.55827" lon="-3.11744">
        <ele>117</ele>
        <time>2024-06-04T12:47:23Z</time>
      </trkpt>
      <trkpt lat="48.55875" lon="-3.11777">
        <ele>118</ele>
        <time>2024-06-04T12:47:36Z</time>
      </trkpt>
      <trkpt lat="48.55891" lon="-3.11838">
        <ele>118</ele>
        <time>2024-06-04T12:47:46Z</time>
      </trkpt>
      <trkpt lat="48.55839" lon="-3.11859">
        <ele>117</ele>
        <time>2024-06-04T12:47:58Z</time>
      </trkpt>
      <trkpt lat="48.55851" lon="-3.11892">
        <ele>116</ele>
        <time>2024-06-04T12:48:04Z</time>
      </trkpt>
      <trkpt lat="48.55902" lon="-3.11974">
        <ele>113</ele>
        <time>2024-06-04T12:48:21Z</time>
      </trkpt>
      <trkpt lat="48.55932" lon="-3.11965">
        <ele>114</ele>
        <time>2024-06-04T12:48:29Z</time>
      </trkpt>
      <trkpt lat="48.55934" lon="-3.11859">
        <ele>119</ele>
        <time>2024-06-04T12:48:45Z</time>
      </trkpt>
      <trkpt lat="48.55956" lon="-3.11789">
        <ele>121</ele>
        <time>2024-06-04T12:48:57Z</time>
      </trkpt>
      <trkpt lat="48.55948" lon="-3.11731">
        <ele>122</ele>
        <time>2024-06-04T12:49:06Z</time>
      </trkpt>
      <trkpt lat="48.5599" lon="-3.11722">
        <ele>124</ele>
        <time>2024-06-04T12:49:16Z</time>
      </trkpt>
      <trkpt lat="48.55988" lon="-3.11643">
        <ele>124</ele>
        <time>2024-06-04T12:49:28Z</time>
      </trkpt>
      <trkpt lat="48.56016" lon="-3.1154">
        <ele>124</ele>
        <time>2024-06-04T12:49:45Z</time>
      </trkpt>
      <trkpt lat="48.56032" lon="-3.11428">
        <ele>124</ele>
        <time>2024-06-04T12:50:03Z</time>
      </trkpt>
      <trkpt lat="48.56082" lon="-3.11334">
        <ele>122</ele>
        <time>2024-06-04T12:50:22Z</time>
      </trkpt>
      <trkpt lat="48.56072" lon="-3.1127">
        <ele>122</ele>
        <time>2024-06-04T12:50:32Z</time>
      </trkpt>
      <trkpt lat="48.55926" lon="-3.11264">
        <ele>124</ele>
        <time>2024-06-04T12:51:06Z</time>
      </trkpt>
      <trkpt lat="48.55877" lon="-3.11279">
        <ele>123</ele>
        <time>2024-06-04T12:51:18Z</time>
      </trkpt>
      <trkpt lat="48.55851" lon="-3.11134">
        <ele>121</ele>
        <time>2024-06-04T12:51:41Z</time>
      </trkpt>
      <trkpt lat="48.55793" lon="-3.11131">
        <ele>119</ele>
        <time>2024-06-04T12:51:55Z</time>
      </trkpt>
      <trkpt lat="48.55771" lon="-3.1114">
        <ele>119</ele>
        <time>2024-06-04T12:52:00Z</time>
      </trkpt>
      <trkpt lat="48.55608" lon="-3.11076">
        <ele>118</ele>
        <time>2024-06-04T12:52:39Z</time>
      </trkpt>
      <trkpt lat="48.55586" lon="-3.10942">
        <ele>120</ele>
        <time>2024-06-04T12:53:01Z</time>
      </trkpt>
      <trkpt lat="48.55612" lon="-3.10772">
        <ele>120</ele>
        <time>2024-06-04T12:53:28Z</time>
      </trkpt>
      <trkpt lat="48.5562" lon="-3.10675">
        <ele>120</ele>
        <time>2024-06-04T12:53:43Z</time>
      </trkpt>
      <trkpt lat="48.55612" lon="-3.10472">
        <ele>121</ele>
        <time>2024-06-04T12:54:14Z</time>
      </trkpt>
      <trkpt lat="48.55652" lon="-3.10369">
        <ele>120</ele>
        <time>2024-06-04T12:54:33Z</time>
      </trkpt>
      <trkpt lat="48.55667" lon="-3.10308">
        <ele>119</ele>
        <time>2024-06-04T12:54:43Z</time>
      </trkpt>
      <trkpt lat="48.55711" lon="-3.1009">
        <ele>115</ele>
        <time>2024-06-04T12:55:18Z</time>
      </trkpt>
      <trkpt lat="48.55715" lon="-3.09968">
        <ele>113</ele>
        <time>2024-06-04T12:55:37Z</time>
      </trkpt>
      <trkpt lat="48.55626" lon="-3.09911">
        <ele>114</ele>
        <time>2024-06-04T12:55:59Z</time>
      </trkpt>
      <trkpt lat="48.55562" lon="-3.09898">
        <ele>114</ele>
        <time>2024-06-04T12:56:14Z</time>
      </trkpt>
      <trkpt lat="48.55464" lon="-3.09835">
        <ele>114</ele>
        <time>2024-06-04T12:56:39Z</time>
      </trkpt>
      <trkpt lat="48.55421" lon="-3.09832">
        <ele>115</ele>
        <time>2024-06-04T12:56:49Z</time>
      </trkpt>
      <trkpt lat="48.55436" lon="-3.09774">
        <ele>114</ele>
        <time>2024-06-04T12:56:59Z</time>
      </trkpt>
      <trkpt lat="48.55528" lon="-3.09774">
        <ele>112</ele>
        <time>2024-06-04T12:57:20Z</time>
      </trkpt>
      <trkpt lat="48.556" lon="-3.09729">
        <ele>111</ele>
        <time>2024-06-04T12:57:39Z</time>
      </trkpt>
      <trkpt lat="48.5562" lon="-3.09638">
        <ele>109</ele>
        <time>2024-06-04T12:57:53Z</time>
      </trkpt>
      <trkpt lat="48.55544" lon="-3.09519">
        <ele>113</ele>
        <time>2024-06-04T12:58:19Z</time>
      </trkpt>
      <trkpt lat="48.55508" lon="-3.09446">
        <ele>114</ele>
        <time>2024-06-04T12:58:33Z</time>
      </trkpt>
      <trkpt lat="48.55444" lon="-3.09446">
        <ele>116</ele>
        <time>2024-06-04T12:58:48Z</time>
      </trkpt>
      <trkpt lat="48.55403" lon="-3.09328">
        <ele>117</ele>
        <time>2024-06-04T12:59:09Z</time>
      </trkpt>
      <trkpt lat="48.55385" lon="-3.09234">
        <ele>118</ele>
        <time>2024-06-04T12:59:24Z</time>
      </trkpt>
      <trkpt lat="48.55407" lon="-3.09161">
        <ele>116</ele>
        <time>2024-06-04T12:59:36Z</time>
      </trkpt>
      <trkpt lat="48.55504" lon="-3.09219">
        <ele>116</ele>
        <time>2024-06-04T13:00:00Z</time>
      </trkpt>
      <trkpt lat="48.55518" lon="-3.09125">
        <ele>116</ele>
        <time>2024-06-04T13:00:15Z</time>
      </trkpt>
      <trkpt lat="48.55508" lon="-3.09067">
        <ele>115</ele>
        <time>2024-06-04T13:00:25Z</time>
      </trkpt>
      <trkpt lat="48.55608" lon="-3.08955">
        <ele>117</ele>
        <time>2024-06-04T13:00:54Z</time>
      </trkpt>
      <trkpt lat="48.55622" lon="-3.08821">
        <ele>119</ele>
        <time>2024-06-04T13:01:15Z</time>
      </trkpt>
      <trkpt lat="48.5562" lon="-3.08697">
        <ele>120</ele>
        <time>2024-06-04T13:01:34Z</time>
      </trkpt>
      <trkpt lat="48.55689" lon="-3.08712">
        <ele>121</ele>
        <time>2024-06-04T13:01:50Z</time>
      </trkpt>
      <trkpt lat="48.55823" lon="-3.08748">
        <ele>126</ele>
        <time>2024-06-04T13:02:22Z</time>
      </trkpt>
      <trkpt lat="48.55946" lon="-3.08839">
        <ele>127</ele>
        <time>2024-06-04T13:02:54Z</time>
      </trkpt>
      <trkpt lat="48.56006" lon="-3.08803">
        <ele>128</ele>
        <time>2024-06-04T13:03:09Z</time>
      </trkpt>
      <trkpt lat="48.56054" lon="-3.08852">
        <ele>126</ele>
        <time>2024-06-04T13:03:22Z</time>
      </trkpt>
      <trkpt lat="48.56084" lon="-3.08836">
        <ele>126</ele>
        <time>2024-06-04T13:03:30Z</time>
      </trkpt>
      <trkpt lat="48.56181" lon="-3.08855">
        <ele>127</ele>
        <time>2024-06-04T13:03:53Z</time>
      </trkpt>
      <trkpt lat="48.56235" lon="-3.08915">
        <ele>127</ele>
        <time>2024-06-04T13:04:08Z</time>
      </trkpt>
      <trkpt lat="48.56301" lon="-3.08921">
        <ele>129</ele>
        <time>2024-06-04T13:04:24Z</time>
      </trkpt>
      <trkpt lat="48.56283" lon="-3.09">
        <ele>129</ele>
        <time>2024-06-04T13:04:37Z</time>
      </trkpt>
      <trkpt lat="48.5603" lon="-3.09553">
        <ele>114</ele>
        <time>2024-06-04T13:06:21Z</time>
      </trkpt>
      <trkpt lat="48.55848" lon="-3.10019">
        <ele>112</ele>
        <time>2024-06-04T13:07:44Z</time>
      </trkpt>
      <trkpt lat="48.558" lon="-3.1013">
        <ele>114</ele>
        <time>2024-06-04T13:08:05Z</time>
      </trkpt>
      <trkpt lat="48.55775" lon="-3.10226">
        <ele>116</ele>
        <time>2024-06-04T13:08:21Z</time>
      </trkpt>
      <trkpt lat="48.5577" lon="-3.10354">
        <ele>119</ele>
        <time>2024-06-04T13:08:41Z</time>
      </trkpt>
      <trkpt lat="48.55774" lon="-3.1042">
        <ele>119</ele>
        <time>2024-06-04T13:08:51Z</time>
      </trkpt>
      <trkpt lat="48.55746" lon="-3.10425">
        <ele>120</ele>
        <time>2024-06-04T13:08:57Z</time>
      </trkpt>
    </trkseg>
  </trk>
</gpx>